רגע לפני שאתם עוזבים...
יש לנו ב
הצעה מיוחד עבורכם!
מספר שירותים שכדאי שתכירו
| לוחית | שעת חיפוש | ||||
| 8389667 | הונדה יפן | CIVIC HYBRID | 2008 | 28/08/2026 | 08:09:41 |
| 4125113 | סובארו יפן | B4 | 2006 | 28/08/2026 | 08:09:41 |
| 90177001 | מרצדס בנץ גרמנ | - | 2016 | 28/08/2026 | 08:09:40 |
| 19581002 | קרייזלר ארהב" | WRANGLER UNLIMI | 2021 | 28/08/2026 | 08:09:39 |
| 72892502 | וולבו בלגיה | - | 2023 | 28/08/2026 | 08:09:38 |
| 19096804 | ליפמוטור סין | C10 | 2025 | 28/08/2026 | 08:09:38 |
| 80390303 | ג'יפ איטליה | COMPASS | 2024 | 28/08/2026 | 08:09:36 |
| 6796662 | סיטרואן ספרד | BERLINGO | 2008 | 28/08/2026 | 08:09:36 |
| 9128379 | מ.ג סין | - | 2016 | 28/08/2026 | 08:09:35 |
| 4758616 | פיג'ו צרפת | 0.2 ISX 603 3 דלת 5 | 1998 | 28/08/2026 | 08:09:34 |
| 4125112 | סיאט ספרד | IBIZA FLOW | 2013 | 28/08/2026 | 08:09:34 |
| 2420573 | יונדאי צ'כיה | I30 | 2010 | 28/08/2026 | 08:09:33 |
| 80390303 | ג'יפ איטליה | COMPASS | 2024 | 28/08/2026 | 08:09:32 |
| 16527903 | יונדאי קוריאה הדרומית | VENUE | 2022 | 28/08/2026 | 08:09:32 |
| 92785401 | פורשה גרמניה | - | 2021 | 28/08/2026 | 08:09:31 |
| 94251701 | טויוטה ארהב" | - | 2024 | 28/08/2026 | 08:09:30 |
| 9804137 | קרייזלר ארהב" | GRAND CHEROKEE | 2016 | 28/08/2026 | 08:09:29 |
| 36725202 | בליץ סין | - | 2021 | 28/08/2026 | 08:09:29 |
| 28574604 | פולקסווגן פולין | CADDY | 2025 | 28/08/2026 | 08:09:28 |
| 4125111 | יונדאי קוריאה הדרומית | I25 | 2013 | 28/08/2026 | 08:09:27 |
| 14499101 | קיה סלובקיה | SPORTAGE | 2018 | 28/08/2026 | 08:09:26 |
| 7879453 | אופל ספרד | CORSA | 2013 | 28/08/2026 | 08:09:25 |
| 3157185 | קיה סלובקיה | CEED | 2017 | 28/08/2026 | 08:09:23 |
| 26283001 | פיאט פולין | ABARTH 500 | 2017 | 28/08/2026 | 08:09:22 |
| 70996403 | יונדאי טורקיה | I10 | 2024 | 28/08/2026 | 08:09:20 |
| 6566514 | מזדה יפן | MAZDA 6 | 2006 | 28/08/2026 | 08:09:19 |
| 49600004 | אקספנג סין | G9 | 2026 | 28/08/2026 | 08:09:18 |
| 30767404 | פורד ארהב" | - | 2025 | 28/08/2026 | 08:09:14 |
| 1524279 | קואנג יאנג טיו | - | 2012 | 28/08/2026 | 08:09:13 |
| 9191676 | מרצדס בנץ גרמנ | - | 2014 | 28/08/2026 | 08:09:13 |
| 47768603 | גילי סין | GEOMETRY C | 2023 | 28/08/2026 | 08:09:12 |
| 1088033 | פיאט פולין | FIAT 500 ABARTH | 2015 | 28/08/2026 | 08:09:12 |
| 7300634 | פיאט פולין | FIAT 500 1.2 | 2016 | 28/08/2026 | 08:09:10 |
| 3850114 | טויוטה יפן | COROLLA | 2006 | 28/08/2026 | 08:09:08 |
| 6507111 | ב מ וו גרמניה | - | 2014 | 28/08/2026 | 08:09:08 |
| 9985467 | סוזוקי-יפן | SX4 | 2008 | 28/08/2026 | 08:09:06 |
| 4136371 | מזדה יפן | MAZDA 2 | 2010 | 28/08/2026 | 08:09:02 |
| 3799072 | שברולט קוריאה הדרומית | CAPTIVA | 2010 | 28/08/2026 | 08:09:02 |
| 4819139 | פיג'ו צרפת | 2008 | 2016 | 28/08/2026 | 08:09:01 |
| 6423131 | יוטונג סין | - | 2014 | 28/08/2026 | 08:08:59 |
| 6884710 | מיצובישי יפן | SPACE WAGON | 2001 | 28/08/2026 | 08:08:57 |
| 6940839 | יונדאי קוריאה הדרומית | I25 | 2016 | 28/08/2026 | 08:08:54 |
| 6940839 | יונדאי קוריאה הדרומית | I25 | 2016 | 28/08/2026 | 08:08:53 |
| 51507404 | מרצדס הונגריה | CLA180 | 2026 | 28/08/2026 | 08:08:47 |
| 5844078 | שברולט ארהב" | - | 2012 | 28/08/2026 | 08:08:44 |
| 9006732 | שברולט קוריאה הדרומית | CRUZE | 2015 | 28/08/2026 | 08:08:44 |
| 6940839 | יונדאי קוריאה הדרומית | I25 | 2016 | 28/08/2026 | 08:08:40 |
| 1900308 | פורד גרמניה | - | 1992 | 28/08/2026 | 08:08:40 |
| 6940839 | יונדאי קוריאה הדרומית | I25 | 2016 | 28/08/2026 | 08:08:36 |
| 21222101 | ניסאן בריטניה | INFINITI Q30 | 2018 | 28/08/2026 | 08:08:31 |
| 3157185 | קיה סלובקיה | CEED | 2017 | 28/08/2026 | 08:08:31 |
| 65620303 | סוזוקי יפן | IGNIS | 2024 | 28/08/2026 | 08:08:28 |
| 85394802 | טסלה סין | MODEL 3 | 2022 | 28/08/2026 | 08:08:28 |
| 6125169 | יונדאי צ'כיה | I30 | 2009 | 28/08/2026 | 08:08:28 |
| 8440570 | פולקסווגן גרמניה | GOLF | 2010 | 28/08/2026 | 08:08:27 |
| 9960260 | רם אור קוגוט | - | 2007 | 28/08/2026 | 08:08:26 |
| 2873415 | סובארו יפן | - | 1994 | 28/08/2026 | 08:08:22 |
| 7514612 | מ א ן גרמניה | - | 2013 | 28/08/2026 | 08:08:21 |
| 76635403 | צ'רי סין | TIGGO 8 PRO | 2024 | 28/08/2026 | 08:08:18 |
| 1172067 | אלפא רומיאו איטליה | ALFA R0ME0 159 | 2009 | 28/08/2026 | 08:08:18 |
| 12605603 | ימהה יפן | - | 2022 | 28/08/2026 | 08:08:17 |
| 6828212 | רנו טורקיה | FLUENCE | 2013 | 28/08/2026 | 08:08:14 |
| 1682275 | סובארו יפן | FORESTER | 2012 | 28/08/2026 | 08:08:11 |
| 63333601 | אאודי גרמניה | A3 SPORTBACK | 2019 | 28/08/2026 | 08:08:10 |
| 4125167 | פולקסווגן גרמניה | TRANSPORTER | 2010 | 28/08/2026 | 08:08:09 |
| 4810654 | פולקסווגן גרמניה | PASSAT | 2015 | 28/08/2026 | 08:08:08 |
| 25197701 | איסוזו תאילנד | PICK-UP | 2018 | 28/08/2026 | 08:08:08 |
| 4137154 | סיאט ספרד | LEON | 2015 | 28/08/2026 | 08:08:06 |
| 3157185 | קיה סלובקיה | CEED | 2017 | 28/08/2026 | 08:08:04 |
| 1189876 | מזדה יפן | CX-5 | 2013 | 28/08/2026 | 08:08:04 |
| 4820539 | פיג'ו צרפת | 3008 | 2016 | 28/08/2026 | 08:08:03 |
| 29843804 | קיה סלובקיה | SPORTAGE HEV | 2025 | 28/08/2026 | 08:08:01 |
| 1221960 | טויוטה יפן | COROLLA | 2006 | 28/08/2026 | 08:07:59 |
| 40744903 | אאודי גרמניה | A3 SEDAN | 2023 | 28/08/2026 | 08:07:56 |
| 68815202 | סאן יאנג סין | - | 2021 | 28/08/2026 | 08:07:54 |
| 3452352 | סאנגיונג קוריאה הדרומית | RODIUS | 2013 | 28/08/2026 | 08:07:53 |
| 32945101 | בומברדיה מקסיק | - | 2023 | 28/08/2026 | 08:07:52 |
| 9690356 | יונדאי קוריאה הדרומית | GETZ | 2004 | 28/08/2026 | 08:07:51 |
| 3451564 | אאודי גרמניה | SPORTBACK A3 | 2008 | 28/08/2026 | 08:07:49 |
| 91561801 | בי. אר. אפ. | - | 2020 | 28/08/2026 | 08:07:48 |
| 6497419 | טויוטה יפן | היילקס C\D 2X4 מהודר | 1998 | 28/08/2026 | 08:07:46 |
| 2996037 | טויוטה יפן | RAV 4 HYBRID | 2016 | 28/08/2026 | 08:07:45 |
| 76109601 | טויוטה טורקיה | C-HR HYBRID | 2019 | 28/08/2026 | 08:07:44 |
| 3157185 | קיה סלובקיה | CEED | 2017 | 28/08/2026 | 08:07:44 |
| 2611171 | פורד קנדה | EDGE | 2010 | 28/08/2026 | 08:07:40 |
| 1765430 | ב מ וו בריטניה | MINI COOPER S | 2016 | 28/08/2026 | 08:07:36 |
| 9785054 | מזדה יפן | CX-5 | 2016 | 28/08/2026 | 08:07:30 |
| 1074039 | דאף אנגליה | - | 2017 | 28/08/2026 | 08:07:29 |
| 1687037 | טויוטה בריטניה | AVENSIS | 2016 | 28/08/2026 | 08:07:26 |
| 3125179 | ניסאן בריטניה | NOTE | 2012 | 28/08/2026 | 08:07:25 |
| 68228204 | ג'אקו סין | JAECOO8 PHEV | 2026 | 28/08/2026 | 08:07:24 |
| 2996037 | טויוטה יפן | RAV 4 HYBRID | 2016 | 28/08/2026 | 08:07:24 |
| 39630302 | יונדאי קוריאה הדרומית | KONA HYBRID | 2021 | 28/08/2026 | 08:07:22 |
| 30530201 | מזדה יפן | CX-5 | 2018 | 28/08/2026 | 08:07:21 |
| 3797217 | וולבו הולנד | וולבו הולנד 5 דלת' | 1998 | 28/08/2026 | 08:07:19 |
| 1667066 | מזדה יפן | MAZDA 3 | 2008 | 28/08/2026 | 08:07:18 |
| 53250104 | ג'י.אמ.סי ארה | - | 2025 | 28/08/2026 | 08:07:18 |
| 3125173 | סוזוקי הונגריה | SWIFT | 2010 | 28/08/2026 | 08:07:18 |
| 16504301 | מיצובישי תאילנד | SPACE STAR | 2018 | 28/08/2026 | 08:07:17 |
| 36415702 | מיצובישי יפן | OUTLANDER | 2021 | 28/08/2026 | 08:07:17 |
| 52999803 | פולריס | - | 2024 | 28/08/2026 | 08:07:14 |
| 7726653 | פולקסווגן מקסיקה | JETTA | 2015 | 28/08/2026 | 08:07:12 |
| 1323229 | ניסאן יפן | ALMERA | 1997 | 28/08/2026 | 08:07:08 |
| 3343217 | הונדה יפן | CIVIC | 1998 | 28/08/2026 | 08:07:04 |
| 4403968 | אס. דבליו. אם. | - | 2017 | 28/08/2026 | 08:07:02 |
| 25204702 | קיה קוריאה הדרומית | NIRO | 2020 | 28/08/2026 | 08:07:01 |
| 6125169 | יונדאי צ'כיה | I30 | 2009 | 28/08/2026 | 08:07:01 |
| 2231876 | ב מ וו ארהב" | X5 XDRIVE 35I | 2013 | 28/08/2026 | 08:06:59 |
| 82128302 | טויוטה טורקיה | COROLLA HSD SDN | 2022 | 28/08/2026 | 08:06:56 |
| 52608402 | טויוטה יפן | RAV 4 HYBRID | 2021 | 28/08/2026 | 08:06:56 |
| 6125168 | סאן יאנג טיואן | - | 2009 | 28/08/2026 | 08:06:53 |
| 9020270 | לקסוס יפן | - | 2014 | 28/08/2026 | 08:06:52 |
| 1241638 | סוזוקי הונגריה | VITARA | 2016 | 28/08/2026 | 08:06:50 |
| 5903039 | יונדאי צ'כיה | I30 | 2016 | 28/08/2026 | 08:06:47 |
| 4672461 | פורד בלגיה | MONDEO | 2007 | 28/08/2026 | 08:06:46 |
| 8163437 | ניסאן הודו | MICRA | 2016 | 28/08/2026 | 08:06:45 |
| 53885103 | מיצובישי יפן | ASX | 2023 | 28/08/2026 | 08:06:44 |
| 6125112 | יונדאי קוריאה הדרומית | I35 | 2012 | 28/08/2026 | 08:06:43 |
| 7871424 | מיצובישי תאילנד | LANCER | 2000 | 28/08/2026 | 08:06:38 |
| 1241638 | סוזוקי הונגריה | VITARA | 2016 | 28/08/2026 | 08:06:37 |
| 65620303 | סוזוקי יפן | IGNIS | 2024 | 28/08/2026 | 08:06:33 |
| 1241638 | סוזוקי הונגריה | VITARA | 2016 | 28/08/2026 | 08:06:31 |
| 3259278 | הונדה יפן | INSIGHT HYBRID | 2011 | 28/08/2026 | 08:06:27 |
| 5527558 | סוזוקי הונגריה | SX4 CROSSOVER | 2014 | 28/08/2026 | 08:06:27 |
| 8163437 | ניסאן הודו | MICRA | 2016 | 28/08/2026 | 08:06:23 |
| 2020014 | מרצדס גרמניה | K 200 | 2006 | 28/08/2026 | 08:06:22 |
| 91056901 | פורד גרמניה | FOCUS | 2010 | 28/08/2026 | 08:06:10 |
| 3306431 | יונדאי טורקיה | I20 | 2014 | 28/08/2026 | 08:06:04 |
| 89947701 | טויוטה יפן | RAV 4 HYBRID | 2019 | 28/08/2026 | 08:05:56 |
| 1066113 | איווקו איטליה | - | 2007 | 28/08/2026 | 08:05:50 |
| 1551975 | סובארו יפן | IMPREZA B3 | 2011 | 28/08/2026 | 08:05:50 |
| 2850860 | סובארו יפן | IMPREZA | 2006 | 28/08/2026 | 08:05:49 |
| 23908103 | מיצובישי תאילנד | L 200 | 2022 | 28/08/2026 | 08:05:45 |
| 19360402 | איסוזו יפן | - | 2020 | 28/08/2026 | 08:05:43 |
| 32179803 | גולדן דרגון סי | - | 2023 | 28/08/2026 | 08:05:39 |
| 41346704 | מרצדס בנץ גרמנ | - | 2025 | 28/08/2026 | 08:05:36 |
| 1011973 | יונדאי צ'כיה | I30 | 2010 | 28/08/2026 | 08:05:32 |
| 17425901 | יונדאי צ'כיה | TUCSON | 2018 | 28/08/2026 | 08:05:30 |
| 8501766 | טויוטה תאילנד | HILUX VIGO | 2009 | 28/08/2026 | 08:05:29 |
| 4246914 | יונדאי טורקיה | H1 | 2006 | 28/08/2026 | 08:05:28 |
| 7992734 | ימהה יפן | - | 2016 | 28/08/2026 | 08:05:26 |
| 3125113 | יונדאי קוריאה הדרומית | ACCENT | 2006 | 28/08/2026 | 08:05:23 |
| 1277968 | סוזוקי יפן | SWIFT | 2009 | 28/08/2026 | 08:05:20 |
| 59874703 | אקספנג סין | P7I | 2024 | 28/08/2026 | 08:05:19 |
| 17425901 | יונדאי צ'כיה | TUCSON | 2018 | 28/08/2026 | 08:05:18 |
| 48576801 | סיטרואן צרפת | JUMPY | 2018 | 28/08/2026 | 08:05:16 |
| 3411524 | לואד רייט | - | 2003 | 28/08/2026 | 08:05:12 |
| 48716303 | יונדאי טורקיה | BAYON | 2023 | 28/08/2026 | 08:05:08 |
| 3125173 | סוזוקי הונגריה | SWIFT | 2010 | 28/08/2026 | 08:05:07 |
| 3259278 | הונדה יפן | INSIGHT HYBRID | 2011 | 28/08/2026 | 08:05:03 |
| 24874902 | סקודה צ'כיה | OCTAVIA | 2020 | 28/08/2026 | 08:05:03 |
| 5469334 | סובארו יפן | OUTBACK | 2016 | 28/08/2026 | 08:05:02 |
| 3259278 | הונדה יפן | INSIGHT HYBRID | 2011 | 28/08/2026 | 08:05:02 |
| 4540730 | טויוטה יפן | LAND CRUISER | 2014 | 28/08/2026 | 08:04:59 |
| 80329601 | מרצדס ארהב" | GLE53 COUPE 4M | 2021 | 28/08/2026 | 08:04:56 |
| 3125173 | סוזוקי הונגריה | SWIFT | 2010 | 28/08/2026 | 08:04:55 |
| 55255704 | רנו צרפת | TRAFIC | 2026 | 28/08/2026 | 08:04:53 |
| 57965802 | טויוטה בריטניה | COROLLA HSD HB | 2021 | 28/08/2026 | 08:04:51 |
| 49037201 | סקודה צ'כיה | SUPERB | 2018 | 28/08/2026 | 08:04:50 |
| 82696703 | טויוטה צרפת | YARIS CROSS HSD | 2024 | 28/08/2026 | 08:04:48 |
| 23294102 | אוובוס ספרד | - | 2021 | 28/08/2026 | 08:04:46 |
| 1242575 | פיג'ו צרפת | 206+ | 2011 | 28/08/2026 | 08:04:44 |
| 3259278 | הונדה יפן | INSIGHT HYBRID | 2011 | 28/08/2026 | 08:04:41 |
| 3259278 | הונדה יפן | INSIGHT HYBRID | 2011 | 28/08/2026 | 08:04:41 |
| 1026031 | מרצדס גרמניה | C180 | 2014 | 28/08/2026 | 08:04:40 |
| 2640111 | יונדאי טורקיה | I20 | 2013 | 28/08/2026 | 08:04:39 |
| 9489871 | מרכז הגרורים | - | 2010 | 28/08/2026 | 08:04:39 |
| 3655930 | ב מ וו גרמניה | 740LI | 2017 | 28/08/2026 | 08:04:36 |
| 9077879 | עטרייה מתכת | - | 2016 | 28/08/2026 | 08:04:35 |
| 4623071 | מזדה יפן | MAZDA 3 | 2010 | 28/08/2026 | 08:04:32 |
| 2239268 | סיטרואן ספרד | C4 PICASSO | 2009 | 28/08/2026 | 08:04:32 |
| 9900071 | קרייזלר ארהב" | - | 2010 | 28/08/2026 | 08:04:31 |
| 6344559 | שברולט קוריאה הדרומית | AVEO | 2005 | 28/08/2026 | 08:04:30 |
| 3125112 | סקודה צ'כיה | OCTAVIA | 2013 | 28/08/2026 | 08:04:30 |
| 5665780 | סיטרואן ספרד | C4 CACTUS | 2016 | 28/08/2026 | 08:04:30 |
| 3259278 | הונדה יפן | INSIGHT HYBRID | 2011 | 28/08/2026 | 08:04:30 |
| 85643703 | סקודה צ'כיה | OCTAVIA | 2024 | 28/08/2026 | 08:04:28 |
| 1156538 | סוזוקי הונגריה | VITARA | 2016 | 28/08/2026 | 08:04:28 |
| 3125168 | פיג'ו ספרד | PARTNER | 2009 | 28/08/2026 | 08:04:27 |
| 3125169 | מזדה יפן | MAZDA 5 | 2009 | 28/08/2026 | 08:04:27 |
| 9912500 | איווקו איטליה | - | 2003 | 28/08/2026 | 08:04:25 |
| 1706876 | מזדה יפן | CX-5 | 2013 | 28/08/2026 | 08:04:23 |
| 1113664 | שברולט קוריאה הדרומית | AVEO | 2008 | 28/08/2026 | 08:04:22 |
| 24968003 | יונדאי קוריאה הדרומית | ELANTRA HEV | 2023 | 28/08/2026 | 08:04:21 |
| 64328401 | פיג'ו צרפת | 3008 | 2019 | 28/08/2026 | 08:04:17 |
| 79245102 | ב מ וו גרמניה | 318I | 2022 | 28/08/2026 | 08:04:15 |
| 26080601 | סיאט ספרד | LEON | 2017 | 28/08/2026 | 08:04:14 |
| 6191163 | הונדה יפן | CIVIC | 2007 | 28/08/2026 | 08:04:12 |
| 41345801 | קיה סלובקיה | CEED | 2018 | 28/08/2026 | 08:04:10 |
| 1330460 | מיצובישי יפן | GRANDIS | 2006 | 28/08/2026 | 08:04:08 |
| 3532930 | מזדה יפן | MAZDA 3 | 2017 | 28/08/2026 | 08:04:06 |
| 14350403 | טויוטה יפן | RAV 4 HYBRID | 2022 | 28/08/2026 | 08:04:04 |
| 26313503 | סקודה צ'כיה | SUPERB FL | 2023 | 28/08/2026 | 08:04:02 |
| 8691264 | טויוטה תאילנד | HILUX VIGO | 2008 | 28/08/2026 | 08:04:00 |
| 35029401 | סקודה צ'כיה | NEW OCTAVIA | 2017 | 28/08/2026 | 08:03:57 |
| 81440403 | סיאט צ'כיה | ATECA | 2024 | 28/08/2026 | 08:03:56 |
| 2725839 | אופל ד. קוריאה | MOKKA | 2016 | 28/08/2026 | 08:03:54 |
| 88330201 | יונדאי טורקיה | I20 | 2020 | 28/08/2026 | 08:03:51 |
| 3125169 | מזדה יפן | MAZDA 5 | 2009 | 28/08/2026 | 08:03:50 |
| 3125169 | מזדה יפן | MAZDA 5 | 2009 | 28/08/2026 | 08:03:49 |